AirNav   Advertisement
 
 1599 users online  

OH83 Lima Memorial Hospital Heliport
Lima, Ohio, USA

GOING TO LIMA?


FAA INFORMATION EFFECTIVE 14 SEPTEMBER 2017

Location

FAA Identifier: OH83
Lat/Long: 40-44-08.4400N / 084-05-12.8100W
40-44.140667N / 084-05.213500W
40.7356778 / -84.0868917
(estimated)
Elevation: 880 ft. / 268 m (estimated)
Variation: 04W (1985)
Time zone: UTC -4 (UTC -5 during Standard Time)
Zip code: 45804

Heliport Operations

Heliport use: Private use, MEDICAL USE.
Activation date: 08/1971
Control tower: no
ARTCC: INDIANAPOLIS CENTER
FSS: DAYTON FLIGHT SERVICE STATION
Attendance: UNATNDD
Wind indicator: yes
Segmented circle: no
Beacon: white-yellow (lighted seaplane base)

Heliport Communications

WX ASOS at AOH (3 nm SE): 128.725 (419-224-6098)
WX AWOS-3 at AXV (17 nm SW): 128.325 (419-753-2821)
WX AWOS-3 at OWX (19 nm N): 120.525 (419-523-4151)

Nearby radio navigation aids

VOR radial/distance  VOR name  Freq  Var
FBCr231/20.0FLAG CITY VORTAC108.2002W
RODr001/26.9ROSEWOOD VORTAC117.5005W

 
NDB name  Hdg/Dist  Freq  Var  ID
RUSHSYLVANIA316/25.332605WRUV .-. ..- ...-
BENTON RIDGE233/25.633405WBNR -... -. .-.

Heliport Services

Runway Information

Helipad H1

Dimensions: 60 x 60 ft. / 18 x 18 m
Surface: concrete
Runway edge lights: 40 WATT HEMISPHERICAL LGTS.
Latitude: 40-44.140667N
Longitude: 084-05.213500W
Elevation: 880.0 ft.
Traffic pattern: leftleft

Heliport Ownership and Management from official FAA records

Ownership: Privately-owned
Owner: LIMA MEMORIAL HOSPITAL
1001 BELLEFONTAINE AVE
LIMA, OH 45804
Phone 419-228-3335
Manager: SECURITY MANAGER
1001 BELLEFONTAINE AVE
LIMA, OH 45804
Phone 419-228-3335

Additional Remarks

A52-H1 TREES N AND W; PLINES S; AND LGTD BLDG E.

Instrument Procedures

There are no published instrument procedures at OH83.

Some nearby airports with instrument procedures:

KAOH - Lima Allen County Airport (3 nm SE)
5G7 - Bluffton Airport (13 nm NE)
KAXV - Neil Armstrong Airport (17 nm SW)
KOWX - Putnam County Airport (19 nm N)
I95 - Hardin County Airport (22 nm E)
 
Loc | Ops | Rwys | IFR | FBO | Links
Com | Nav | Svcs | Stats | Notes


 
Area around OH83 (Lima Memorial Hospital Heliport)
 
Road maps at: MapQuest Bing Google
 
Aerial photo
No photo
 
Sectional chart

 
Airport distance calculator
Flying to Lima Memorial Hospital Heliport? Find the distance to fly.

From to OH83

Sunrise and sunset
Times for 20-Sep-2017
 Local
(UTC-4)
 Zulu
(UTC)
Morning civil twilight06:5510:55
Sunrise07:2311:23
Sunset19:3723:37
Evening civil twilight20:0400:04

Current date and time
Zulu (UTC)  20-Sep-2017 17:53:27
Local (UTC-4)  20-Sep-2017 13:53:27
 
METAR
KAOH 
4nm SE 
201653Z AUTO 18004KT 10SM SCT025 SCT035 26/21 A3002 RMK AO2 SLP159 T02610206
KAXV 
17nm SW 
201732Z AUTO 22006KT 7SM BKN030 BKN039 BKN050 27/22 A3002 RMK AO2
KOWX 
19nm N 
201736Z AUTO 23006KT 10SM SCT024 SCT029 SCT038 27/21 A3002 RMK AO1
TAF
KFDY 
25nm NE 
201130Z 2012/2112 VRB03KT P6SM BKN060 FM201700 22006KT P6SM BKN045 FM202300 13004KT P6SM SCT050 FM210900 VRB03KT 5SM BR SKC
NOTAMs
Click for the latest NOTAMs
NOTAMs are issued by the DoD/FAA and will open in a separate window not controlled by AirNav.

 

 
 

Would you like to see your business listed on this page?

 If your business provides an interesting product or service to pilots, flight crews, aircraft, or users of the Lima Memorial Hospital Heliport, you should consider listing it here.  To start the listing process, click on the button below
 
Add a business
 

Other Pages about Lima Memorial Hospital Heliport

Update a link
 
Copyright © AirNav, LLC. All rights reserved. Privacy Policy  Contact